Time,TemperatureF,DewpointF,PressureIn,WindDirection,WindDirectionDegrees,WindSpeedMPH,WindSpeedGustMPH,Humidity,HourlyPrecipIn,Conditions,Clouds,dailyrainin,SoftwareType,DateUTC
2013-03-21 00:02:00,52.0,33.0,30.08,SE,127,0.0,0.0,48,0.00,,,0.00,,2013-03-21 05:02:00,
2013-03-21 00:12:00,52.0,33.0,30.08,SE,127,0.0,0.0,48,0.00,,,0.00,,2013-03-21 05:12:00,
2013-03-21 00:22:00,52.0,34.0,30.07,SE,127,0.0,0.0,51,0.00,,,0.00,,2013-03-21 05:22:00,
2013-03-21 00:32:00,51.0,34.0,30.07,SE,127,0.0,0.0,51,0.00,,,0.00,,2013-03-21 05:32:00,
2013-03-21 00:43:00,51.0,34.0,30.07,SE,127,0.0,0.0,51,0.00,,,0.00,,2013-03-21 05:43:00,
2013-03-21 00:52:00,51.0,35.0,30.07,SE,127,0.0,0.0,54,0.00,,,0.00,,2013-03-21 05:52:00,
2013-03-21 01:02:00,50.0,34.0,30.07,SE,127,0.0,0.0,53,0.00,,,0.00,,2013-03-21 06:02:00,
2013-03-21 01:12:00,50.0,34.0,30.07,SE,127,0.0,0.0,53,0.00,,,0.00,,2013-03-21 06:12:00,
2013-03-21 01:22:00,50.0,33.0,30.06,SE,127,0.0,0.0,52,0.00,,,0.00,,2013-03-21 06:22:00,
2013-03-21 01:32:00,50.0,34.0,30.06,SE,127,0.0,0.0,55,0.00,,,0.00,,2013-03-21 06:32:00,
2013-03-21 01:42:00,50.0,34.0,30.06,SE,127,0.0,0.0,55,0.00,,,0.00,,2013-03-21 06:42:00,
2013-03-21 01:52:00,49.0,33.0,30.04,SE,127,0.0,1.0,54,0.00,,,0.00,,2013-03-21 06:52:00,
2013-03-21 02:02:00,49.0,33.0,30.04,SE,127,0.0,1.0,54,0.00,,,0.00,,2013-03-21 07:02:00,
2013-03-21 02:12:00,49.0,33.0,30.04,SE,127,0.0,1.0,54,0.00,,,0.00,,2013-03-21 07:12:00,
2013-03-21 02:22:00,49.0,33.0,30.02,SE,127,0.0,1.0,54,0.00,,,0.00,,2013-03-21 07:22:00,
2013-03-21 02:32:00,49.0,32.0,30.02,SE,127,0.0,3.0,52,0.00,,,0.00,,2013-03-21 07:32:00,
2013-03-21 02:42:00,49.0,32.0,30.02,SE,127,0.0,3.0,52,0.00,,,0.00,,2013-03-21 07:42:00,
2013-03-21 02:52:00,50.0,33.0,30.01,SE,128,1.0,3.0,51,0.00,,,0.00,,2013-03-21 07:52:00,
2013-03-21 03:02:00,50.0,32.0,30.01,SE,128,0.0,3.0,50,0.00,,,0.00,,2013-03-21 08:02:00,
2013-03-21 03:13:00,50.0,32.0,30.01,SE,128,0.0,1.0,50,0.00,,,0.00,,2013-03-21 08:13:00,
2013-03-21 03:22:00,50.0,32.0,30.01,SE,128,0.0,1.0,50,0.00,,,0.00,,2013-03-21 08:22:00,
2013-03-21 03:33:00,51.0,33.0,30.00,SE,128,0.0,3.0,50,0.00,,,0.00,,2013-03-21 08:33:00,
2013-03-21 03:42:00,51.0,33.0,30.00,SE,128,0.0,3.0,50,0.00,,,0.00,,2013-03-21 08:42:00,
2013-03-21 03:52:00,51.0,33.0,30.00,SE,128,0.0,3.0,50,0.00,,,0.00,,2013-03-21 08:52:00,
2013-03-21 04:02:00,51.0,33.0,29.99,SE,128,1.0,3.0,49,0.00,,,0.00,,2013-03-21 09:02:00,
2013-03-21 04:11:00,51.0,33.0,29.99,SE,128,1.0,3.0,49,0.00,,,0.00,,2013-03-21 09:11:00,
2013-03-21 04:21:00,51.0,33.0,29.99,SE,128,1.0,3.0,49,0.00,,,0.00,,2013-03-21 09:21:00,
2013-03-21 04:33:00,52.0,33.0,29.98,SE,142,2.0,5.0,49,0.00,,,0.00,,2013-03-21 09:33:00,
2013-03-21 04:43:00,52.0,33.0,29.98,SE,142,2.0,5.0,49,0.00,,,0.00,,2013-03-21 09:43:00,
2013-03-21 04:53:00,52.0,33.0,29.98,SE,133,2.0,7.0,48,0.00,,,0.00,,2013-03-21 09:53:00,
2013-03-21 05:03:00,52.0,33.0,29.96,SE,133,2.0,7.0,48,0.00,,,0.00,,2013-03-21 10:03:00,
2013-03-21 05:12:00,52.0,33.0,29.96,SE,133,2.0,7.0,48,0.00,,,0.00,,2013-03-21 10:12:00,
2013-03-21 05:22:00,52.0,33.0,29.95,SE,140,2.0,6.0,48,0.00,,,0.00,,2013-03-21 10:22:00,
2013-03-21 05:33:00,52.0,33.0,29.95,SE,130,3.0,8.0,48,0.00,,,0.00,,2013-03-21 10:33:00,
2013-03-21 05:42:00,52.0,33.0,29.95,SE,130,3.0,8.0,48,0.00,,,0.00,,2013-03-21 10:42:00,
2013-03-21 05:53:00,52.0,33.0,29.94,SE,134,2.0,7.0,48,0.00,,,0.00,,2013-03-21 10:53:00,
2013-03-21 06:03:00,52.0,33.0,29.95,SE,136,2.0,6.0,48,0.00,,,0.00,,2013-03-21 11:03:00,
2013-03-21 06:12:00,52.0,33.0,29.95,SE,136,2.0,6.0,48,0.00,,,0.00,,2013-03-21 11:12:00,
2013-03-21 06:22:00,52.0,33.0,29.95,SE,133,2.0,7.0,48,0.00,,,0.00,,2013-03-21 11:22:00,
2013-03-21 06:33:00,52.0,32.0,29.95,SE,135,3.0,9.0,47,0.00,,,0.00,,2013-03-21 11:33:00,
2013-03-21 06:43:00,52.0,32.0,29.95,SE,135,3.0,9.0,47,0.00,,,0.00,,2013-03-21 11:43:00,
2013-03-21 06:53:00,52.0,32.0,29.95,SE,139,5.0,12.0,46,0.00,,,0.00,,2013-03-21 11:53:00,
2013-03-21 07:12:00,53.0,33.0,29.95,SE,134,3.0,6.0,47,0.00,,,0.00,,2013-03-21 12:12:00,
2013-03-21 07:22:00,53.0,33.0,29.95,SE,136,3.0,12.0,47,0.00,,,0.00,,2013-03-21 12:22:00,
2013-03-21 07:32:00,53.0,33.0,29.95,SE,132,2.0,9.0,47,0.00,,,0.00,,2013-03-21 12:32:00,
2013-03-21 07:42:00,53.0,33.0,29.95,SE,132,2.0,9.0,47,0.00,,,0.00,,2013-03-21 12:42:00,
2013-03-21 07:53:00,53.0,34.0,29.95,SE,136,3.0,9.0,48,0.00,,,0.00,,2013-03-21 12:53:00,
2013-03-21 08:02:00,53.0,33.0,29.93,SE,135,5.0,9.0,47,0.00,,,0.00,,2013-03-21 13:02:00,
2013-03-21 08:12:00,53.0,33.0,29.93,SE,135,5.0,9.0,47,0.00,,,0.00,,2013-03-21 13:12:00,
2013-03-21 08:22:00,53.0,33.0,29.93,ESE,120,6.0,13.0,47,0.00,,,0.00,,2013-03-21 13:22:00,
2013-03-21 08:32:00,53.0,34.0,29.93,SE,131,6.0,12.0,48,0.00,,,0.00,,2013-03-21 13:32:00,
2013-03-21 08:42:00,53.0,34.0,29.93,SE,131,6.0,12.0,48,0.00,,,0.00,,2013-03-21 13:42:00,
2013-03-21 08:52:00,53.0,34.0,29.93,SE,135,5.0,12.0,49,0.00,,,0.00,,2013-03-21 13:52:00,
2013-03-21 09:02:00,52.0,34.0,29.94,SE,139,3.0,9.0,51,0.00,,,0.00,,2013-03-21 14:02:00,
2013-03-21 09:12:00,52.0,35.0,29.93,SE,127,3.0,7.0,52,0.00,,,0.00,,2013-03-21 14:12:00,
2013-03-21 09:22:00,52.0,35.0,29.93,SE,127,3.0,7.0,52,0.00,,,0.00,,2013-03-21 14:22:00,
2013-03-21 09:32:00,53.0,36.0,29.92,SE,138,2.0,6.0,53,0.00,,,0.00,,2013-03-21 14:32:00,
2013-03-21 09:42:00,53.0,36.0,29.92,SE,138,2.0,6.0,53,0.00,,,0.00,,2013-03-21 14:42:00,
2013-03-21 09:52:00,53.0,36.0,29.91,SE,136,3.0,12.0,53,0.00,,,0.00,,2013-03-21 14:52:00,
2013-03-21 10:03:00,55.0,38.0,29.91,SE,135,5.0,10.0,52,0.00,,,0.00,,2013-03-21 15:03:00,
2013-03-21 10:12:00,55.0,38.0,29.91,SE,135,5.0,10.0,52,0.00,,,0.00,,2013-03-21 15:12:00,
2013-03-21 10:22:00,55.0,38.0,29.91,SE,132,6.0,13.0,52,0.00,,,0.00,,2013-03-21 15:22:00,
2013-03-21 10:33:00,57.0,41.0,29.90,SE,132,5.0,17.0,55,0.00,,,0.00,,2013-03-21 15:33:00,
2013-03-21 10:42:00,57.0,41.0,29.90,SE,132,5.0,17.0,55,0.00,,,0.00,,2013-03-21 15:42:00,
2013-03-21 10:52:00,57.0,41.0,29.90,SE,132,5.0,17.0,55,0.00,,,0.00,,2013-03-21 15:52:00,
2013-03-21 11:03:00,59.0,44.0,29.88,SE,136,5.0,13.0,57,0.00,,,0.00,,2013-03-21 16:03:00,
2013-03-21 11:12:00,59.0,44.0,29.88,SE,136,5.0,13.0,57,0.00,,,0.00,,2013-03-21 16:12:00,
2013-03-21 11:23:00,60.0,44.0,29.87,SE,134,5.0,13.0,56,0.00,,,0.00,,2013-03-21 16:23:00,
2013-03-21 11:33:00,61.0,45.0,29.86,SSE,159,5.0,14.0,56,0.00,,,0.00,,2013-03-21 16:33:00,
2013-03-21 11:42:00,61.0,45.0,29.86,SSE,159,5.0,14.0,56,0.00,,,0.00,,2013-03-21 16:42:00,
2013-03-21 11:52:00,62.0,46.0,29.86,South,172,2.0,14.0,56,0.00,,,0.00,,2013-03-21 16:52:00,
2013-03-21 12:02:00,63.0,47.0,29.86,East,99,5.0,15.0,55,0.00,,,0.00,,2013-03-21 17:02:00,
2013-03-21 12:12:00,63.0,47.0,29.86,East,99,5.0,15.0,55,0.00,,,0.00,,2013-03-21 17:12:00,
2013-03-21 12:23:00,64.0,47.0,29.84,SSE,148,5.0,16.0,55,0.00,,,0.00,,2013-03-21 17:23:00,
2013-03-21 12:32:00,65.0,49.0,29.82,SSE,160,3.0,15.0,56,0.00,,,0.00,,2013-03-21 17:32:00,
2013-03-21 12:42:00,65.0,49.0,29.82,SSE,160,3.0,15.0,56,0.00,,,0.00,,2013-03-21 17:42:00,
2013-03-21 12:52:00,65.0,48.0,29.82,South,177,6.0,14.0,55,0.00,,,0.00,,2013-03-21 17:52:00,
2013-03-21 13:02:00,67.0,49.0,29.80,SSE,163,5.0,18.0,52,0.00,,,0.00,,2013-03-21 18:02:00,
2013-03-21 13:12:00,67.0,49.0,29.80,SSE,163,5.0,18.0,52,0.00,,,0.00,,2013-03-21 18:12:00,
2013-03-21 13:22:00,68.0,49.0,29.80,SSW,196,5.0,14.0,50,0.00,,,0.00,,2013-03-21 18:22:00,
2013-03-21 13:32:00,69.0,49.0,29.78,SSE,159,3.0,13.0,49,0.00,,,0.00,,2013-03-21 18:32:00,
2013-03-21 13:42:00,69.0,49.0,29.78,SSE,159,3.0,13.0,49,0.00,,,0.00,,2013-03-21 18:42:00,
2013-03-21 13:52:00,69.0,50.0,29.78,SSE,157,5.0,16.0,50,0.00,,,0.00,,2013-03-21 18:52:00,
2013-03-21 14:02:00,68.0,50.0,29.75,SSW,192,4.0,20.0,53,0.00,,,0.00,,2013-03-21 19:02:00,
2013-03-21 14:12:00,68.0,50.0,29.75,SSW,192,4.0,20.0,53,0.00,,,0.00,,2013-03-21 19:12:00,
2013-03-21 14:22:00,67.0,50.0,29.75,SSE,160,3.0,12.0,55,0.00,,,0.00,,2013-03-21 19:22:00,
2013-03-21 14:32:00,67.0,51.0,29.73,SSE,159,5.0,12.0,56,0.00,,,0.00,,2013-03-21 19:32:00,
2013-03-21 14:42:00,67.0,51.0,29.73,SSE,159,5.0,12.0,56,0.00,,,0.00,,2013-03-21 19:42:00,
2013-03-21 14:53:00,66.0,51.0,29.72,South,181,3.0,12.0,58,0.00,,,0.00,,2013-03-21 19:53:00,
2013-03-21 15:02:00,66.0,52.0,29.72,SSE,155,2.0,9.0,60,0.00,,,0.00,,2013-03-21 20:02:00,
2013-03-21 15:12:00,66.0,52.0,29.72,SSE,155,2.0,9.0,60,0.00,,,0.00,,2013-03-21 20:12:00,
2013-03-21 15:22:00,66.0,52.0,29.71,SSW,196,3.0,10.0,61,0.00,,,0.00,,2013-03-21 20:22:00,
2013-03-21 15:33:00,66.0,53.0,29.70,South,185,4.0,10.0,63,0.00,,,0.00,,2013-03-21 20:33:00,
2013-03-21 15:42:00,66.0,53.0,29.70,South,185,4.0,10.0,63,0.00,,,0.00,,2013-03-21 20:42:00,
2013-03-21 15:53:00,66.0,53.0,29.70,SSE,162,3.0,12.0,63,0.00,,,0.00,,2013-03-21 20:53:00,
2013-03-21 16:02:00,66.0,53.0,29.68,South,175,3.0,10.0,64,0.00,,,0.00,,2013-03-21 21:02:00,
2013-03-21 16:12:00,66.0,53.0,29.68,South,175,3.0,10.0,64,0.00,,,0.00,,2013-03-21 21:12:00,
2013-03-21 16:22:00,66.0,53.0,29.68,SSW,211,2.0,7.0,64,0.00,,,0.00,,2013-03-21 21:22:00,
2013-03-21 16:32:00,67.0,54.0,29.66,SE,141,3.0,7.0,64,0.00,,,0.00,,2013-03-21 21:32:00,
2013-03-21 16:43:00,67.0,54.0,29.66,SE,141,3.0,7.0,64,0.00,,,0.00,,2013-03-21 21:43:00,
2013-03-21 16:52:00,67.0,54.0,29.66,SSE,165,3.0,13.0,64,0.00,,,0.00,,2013-03-21 21:52:00,
2013-03-21 17:02:00,67.0,55.0,29.65,SSE,157,2.0,10.0,65,0.00,,,0.00,,2013-03-21 22:02:00,
2013-03-21 17:13:00,67.0,55.0,29.65,SSE,157,2.0,10.0,65,0.00,,,0.00,,2013-03-21 22:13:00,
2013-03-21 17:23:00,67.0,54.0,29.65,SE,140,3.0,14.0,64,0.00,,,0.00,,2013-03-21 22:23:00,
2013-03-21 17:33:00,67.0,54.0,29.65,SSE,162,3.0,10.0,64,0.00,,,0.00,,2013-03-21 22:33:00,
2013-03-21 17:42:00,67.0,54.0,29.65,SSE,162,3.0,10.0,64,0.00,,,0.00,,2013-03-21 22:42:00,
2013-03-21 17:52:00,67.0,54.0,29.62,SE,141,3.0,15.0,64,0.00,,,0.00,,2013-03-21 22:52:00,
2013-03-21 18:02:00,67.0,55.0,29.62,South,180,2.0,12.0,65,0.00,,,0.00,,2013-03-21 23:02:00,
2013-03-21 18:12:00,67.0,55.0,29.62,South,180,2.0,12.0,65,0.00,,,0.00,,2013-03-21 23:12:00,
2013-03-21 18:22:00,67.0,55.0,29.62,SSE,150,3.0,12.0,65,0.00,,,0.00,,2013-03-21 23:22:00,
2013-03-21 18:32:00,67.0,55.0,29.60,SE,143,2.0,9.0,66,0.00,,,0.00,,2013-03-21 23:32:00,
2013-03-21 18:42:00,67.0,55.0,29.60,SE,143,2.0,9.0,66,0.00,,,0.00,,2013-03-21 23:42:00,
2013-03-21 18:53:00,67.0,55.0,29.60,SE,143,2.0,9.0,66,0.00,,,0.00,,2013-03-21 23:53:00,
2013-03-21 19:02:00,68.0,56.0,29.60,SE,145,3.0,10.0,66,0.00,,,0.00,,2013-03-22 00:02:00,
2013-03-21 19:12:00,68.0,56.0,29.60,SE,145,3.0,10.0,66,0.00,,,0.00,,2013-03-22 00:12:00,
2013-03-21 19:22:00,68.0,56.0,29.60,SSE,152,3.0,12.0,66,0.00,,,0.00,,2013-03-22 00:22:00,
2013-03-21 19:32:00,68.0,56.0,29.60,SE,132,3.0,9.0,66,0.00,,,0.00,,2013-03-22 00:32:00,
2013-03-21 19:42:00,68.0,56.0,29.60,SE,132,3.0,9.0,66,0.00,,,0.00,,2013-03-22 00:42:00,
2013-03-21 19:52:00,67.0,55.0,29.60,SE,142,1.0,14.0,66,0.00,,,0.00,,2013-03-22 00:52:00,
2013-03-21 20:02:00,67.0,56.0,29.60,SE,133,3.0,13.0,68,0.00,,,0.00,,2013-03-22 01:02:00,
2013-03-21 20:12:00,67.0,56.0,29.60,SE,133,3.0,13.0,68,0.00,,,0.00,,2013-03-22 01:12:00,
2013-03-21 20:22:00,66.0,55.0,29.60,SE,133,3.0,12.0,68,0.00,,,0.00,,2013-03-22 01:22:00,
2013-03-21 20:32:00,66.0,56.0,29.60,SE,128,4.0,10.0,69,0.00,,,0.00,,2013-03-22 01:32:00,
2013-03-21 20:42:00,66.0,56.0,29.60,SE,128,4.0,10.0,69,0.00,,,0.00,,2013-03-22 01:42:00,
2013-03-21 20:52:00,66.0,56.0,29.60,SE,132,3.0,12.0,70,0.00,,,0.00,,2013-03-22 01:52:00,
2013-03-21 21:02:00,66.0,56.0,29.60,SE,145,3.0,13.0,71,0.00,,,0.00,,2013-03-22 02:02:00,
2013-03-21 21:12:00,66.0,56.0,29.60,SE,145,3.0,13.0,71,0.00,,,0.00,,2013-03-22 02:12:00,
2013-03-21 21:22:00,65.0,55.0,29.60,SSE,161,4.0,9.0,71,0.00,,,0.00,,2013-03-22 02:22:00,
2013-03-21 21:32:00,65.0,56.0,29.60,SE,146,3.0,12.0,73,0.00,,,0.00,,2013-03-22 02:32:00,
2013-03-21 21:53:00,65.0,56.0,29.60,SE,133,3.0,12.0,73,0.00,,,0.00,,2013-03-22 02:53:00,
2013-03-21 22:02:00,65.0,56.0,29.61,SE,133,3.0,12.0,74,0.00,,,0.00,,2013-03-22 03:02:00,
2013-03-21 22:12:00,65.0,56.0,29.61,SE,133,3.0,12.0,74,0.00,,,0.00,,2013-03-22 03:12:00,
2013-03-21 22:22:00,65.0,57.0,29.61,SE,141,3.0,9.0,75,0.00,,,0.00,,2013-03-22 03:22:00,
2013-03-21 22:33:00,64.0,56.0,29.62,SE,142,3.0,12.0,76,0.00,,,0.00,,2013-03-22 03:33:00,
2013-03-21 22:43:00,64.0,56.0,29.62,SE,142,3.0,12.0,76,0.00,,,0.00,,2013-03-22 03:43:00,
2013-03-21 22:53:00,64.0,57.0,29.62,SE,145,3.0,10.0,77,0.00,,,0.00,,2013-03-22 03:53:00,
2013-03-21 23:03:00,64.0,57.0,29.62,SE,139,3.0,12.0,78,0.00,,,0.00,,2013-03-22 04:03:00,
2013-03-21 23:12:00,64.0,57.0,29.62,SE,139,3.0,12.0,78,0.00,,,0.00,,2013-03-22 04:12:00,
2013-03-21 23:23:00,64.0,57.0,29.62,SSE,158,3.0,9.0,78,0.00,,,0.00,,2013-03-22 04:23:00,
2013-03-21 23:32:00,64.0,57.0,29.62,SSE,151,2.0,12.0,79,0.00,,,0.00,,2013-03-22 04:32:00,
2013-03-21 23:42:00,64.0,57.0,29.62,SSE,151,2.0,12.0,79,0.00,,,0.00,,2013-03-22 04:42:00,
2013-03-21 23:52:00,64.0,58.0,29.62,SSE,160,3.0,12.0,80,0.00,,,0.00,,2013-03-22 04:52:00,